Regional Weather Roundup
Issued by NWS

Home | Current Version | Previous Version | Text Only | Print | Product List | Glossary On
Versions: 1 2 3 4 5 6 7 8 9 10 11 12 13 14 15 16 17 18 19 20 21 22 23 24 25 26 27 28 29 30 31 32 33 34 35 36 37 38 39 40 41 42 43 44 45 46 47 48 49 50
005
ASUS43 KMKX 042000
RWRWI

WISCONSIN REGIONAL WEATHER ROUNDUP
NATIONAL WEATHER SERVICE MILWAUKEE/SULLIVAN WI
300 PM CDT WED MAY 04 2016

NOTE: "FAIR" INDICATES FEW OR NO CLOUDS BELOW 12,000 FEET WITH NO
SIGNIFICANT WEATHER AND/OR OBSTRUCTIONS TO VISIBILITY.

WIZ001-002-006>008-014>016-023>028-042100-
NORTHWEST WISCONSIN

CITY           SKY/WX    TMP DP  RH WIND       PRES   REMARKS
SUPERIOR ARPT  SUNNY     51  31  46 E10       29.98S
ASHLAND        SUNNY     54  32  43 NE14      29.99R
HAYWARD        SUNNY     59  17  19 N15G33    29.94S
SIREN          SUNNY     63  21  20 NW10G22   29.93F
CUMBERLAND     SUNNY     61  21  21 N16G24    29.93R
RICE LAKE      SUNNY     61  20  20 N14G22    29.94R
CHETEK         SUNNY     60  28  28 N8G20     29.92S
LADYSMITH      SUNNY     58  25  27 N21G28    29.93R
EAU CLAIRE     NOT AVBL
MENOMONIE      SUNNY     64  26  23 NW16G23   29.91S
NEW RICHMOND   SUNNY     64  24  21 N15G22    29.94R
OSCEOLA        SUNNY     64  27  24 NW15      29.96S
$$

WIZ003>005-009-010-017-018-042100-
NORTH CENTRAL WISCONSIN

CITY           SKY/WX    TMP DP  RH WIND       PRES   REMARKS
MANITOWISH WTR CLOUDY    45  31  58 N12G17    29.94R
ARBOR VITAE    CLOUDY    48  33  54 N10G20    29.93R
WOODRUFF       CLOUDY    48  33  54 N10G20    29.93R
RHINELANDER    PTSUNNY   48  31  51 N15G24    29.91S
EAGLE RIVER    PTSUNNY   45  30  55 N16       29.91S
LAND O LAKES   CLOUDY    45  32  61 N16G22    29.93S
PHILLIPS       SUNNY     52  28  40 N13G20    29.92R
TOMAHAWK       MOSUNNY   53  31  43 N14G21    29.90R
MEDFORD        SUNNY     56  25  30 N18       29.88R
MERRILL        MOSUNNY   56  31  39 N17G24    29.87R
$$

WIZ029-030-035-036-043>047-042100-
CENTRAL WISCONSIN

CITY           SKY/WX    TMP DP  RH WIND       PRES   REMARKS
WAUSAU         MOSUNNY   59  30  33 N17G26    29.84R
MOSINEE        MOSUNNY   57  28  33 N17G24    29.86S
MARSHFIELD     SUNNY     60  23  24 N22G31    29.85S
STEVENS POINT  MOSUNNY   56  28  33 N14G22    29.84S
WAUPACA        PTSUNNY   58  32  37 N20G25    29.83S
WAUTOMA        CLOUDY    58  30  34 N17G25    29.82S
WISC RAPIDS    SUNNY     62  22  21 N18G29    29.85F
CAMP DOUGLAS   NOT AVBL
$$

WIZ011>013-019>022-031-037>040-048>050-042100-
NORTHEAST WISCONSIN

CITY           SKY/WX    TMP DP  RH WIND       PRES   REMARKS
ANTIGO         MOSUNNY   48  34  58 N22G29    29.87S
SHAWANO        PTSUNNY   57  35  43 N18G25    29.84R
OCONTO         CLOUDY    51  34  52 NE16G22   29.82S
STURGEON BAY   MOSUNNY   46  34  61 N21G30    29.85S
GREEN BAY      CLOUDY    53  37  54 N13G25    29.82S
MANITOWOC      NOT AVBL
APPLETON       PTSUNNY   54  32  43 N15G171   29.81S
CLINTONVILLE   CLOUDY    54  32  43 N15G24    29.83R
OSHKOSH        CLOUDY    54  35  48 N18G28    29.81S
$$

WIZ032>034-041-042-053>061-042100-
SOUTHWEST WISCONSIN

CITY           SKY/WX    TMP DP  RH WIND       PRES   REMARKS
LA CROSSE      MOSUNNY   65  31  28 N22G31    29.87F
SPARTA         SUNNY     61  28  28 NW18G28   29.87S
VIROQUA        MOSUNNY   59  31  34 N16G25    29.87S
BOSCOBEL       PTSUNNY   63  30  28 N18G26    29.85F
PRAIRIE DU CHI MOSUNNY   62  31  30 N15G21    29.87S
PLATTEVILLE    MOSUNNY   61  34  36 N18G36    29.84S
$$

WIZ056-057-062-063-064-067-068-042100-
SOUTH CENTRAL WISCONSIN

CITY           SKY/WX    TMP DP  RH WIND       PRES   REMARKS
REEDSBURG      MOSUNNY   58  31  36 NW21      29.83S
BARABOO/DELLS  PTSUNNY   60  25  26 N17G33    29.83S
LONE ROCK      NOT AVBL
MINERAL POINT  MOSUNNY   61  28  29 NW16G31   29.83S
MADISON        PTSUNNY   56  32  40 N15G24    29.81S
MIDDLETON      CLOUDY    59  34  38 N20       29.82S
WATERTOWN      CLOUDY    53  37  55 N12G20    29.81R
MONROE         CLOUDY    55  32  41 N16G25    29.81S
JANESVILLE     CLOUDY    55  36  47 VRB9      29.80S
$$

WIZ051-052-058>065-066-070>072-042100-
SOUTHEAST WISCONSIN

CITY           SKY/WX    TMP DP  RH WIND       PRES   REMARKS
MILWAUKEE      CLOUDY    46  37  71 N12       29.80S
WAUKESHA       CLOUDY    48  34  57 NW21G28   29.81F
MILWAUKEE/TIMM CLOUDY    48  34  57 MISG      29.81S
RACINE         CLOUDY    45  36  70 N14       29.82S
BURLINGTON     CLOUDY    48  35  60 N16       29.80F
KENOSHA        CLOUDY    47  38  71 N8        29.80S
FOND DU LAC    CLOUDY    53  36  52 N18       29.82S
SHEBOYGAN      CLOUDY    50  37  61 N15G22    29.80S
WEST BEND      CLOUDY    48  36  61 N14       29.80S
JUNEAU         CLOUDY    53  37  54 N16G22    29.82S
$$

LSZ147-162-042100-
LAKE SUPERIOR

STATION/POSITION TIME  TEMP    WIND        PRES    WAVE
                       AIR SEA DIR/SP/G            HT/PER
                 (UTC) (F)     (DEG/KT/KT) (MB)    (FT/S)
W MID LAKE BUOY  1850   38 37  230/  4/  6 1016.4R   2/ 5
DEVILS ISLAND    1900   44     120/  7/  9 1016.1F
SAXON HARBOR     1940   45      60/ 10/ 11 1015.6S
$$

LMZ867-665-643>646-042100-
LAKE MICHIGAN

STATION/POSITION TIME  TEMP    WIND        PRES    WAVE
                       AIR SEA DIR/SP/G            HT/PER
                 (UTC) (F)     (DEG/KT/KT) (MB)    (FT/S)
CHAMBERS ISLAND  1900   44     350/ 18/ 22 1010.5
N MID LAKE BUOY  1850   41 39  330/ 17/ 21 1009.1R   4/ 5
NORTHPORT PIER   1904   41     340/ 22     1010.2R
ALGOMA LAKESHORE 1900          360/ 16/ 22   N/A
KEWAUNEE LAKESHO 1900   47      10/ 14/ 20 1008.9R
SHEBOYGAN LAKESH 1900   46      10/ 16/ 19 1009.8S
PORT WASHINGTON  1900   50     360/ 10/ 15 1010.2
S MID LAKE BUOY  1850   41 40  360/ 25/ 33 1007.3R   8/ 7
KENOSHA   LAKESH 1900   44      20/ 18/ 23 1009.1R
$$

TC  - TEMPERATURE IN CELSIUS
VSB - VISIBILITY IN STATUTE MILES
WCI - WIND CHILL INDEX
HX  - HEAT INDEX





USA.gov is the U.S. government's official web portal to all federal, state and local government web resources and services.